Retour au catalogue

CZ-2D R/B

ActifSSO
NORAD 43486·ROCKET BODY·🇨🇳 China

Lancé Jun 2, 2018 depuis Jiuquan Satellite Launch Center

Loading…

Prochains Passages (prochaines 24 heures)

TLE

FraisSource: Space-Track

Époque: Sep 14, 2026, 12:20 UTC

1 43486U 18048C   26257.51396779  .00002209  00000-0  20135-3 0  9992
2 43486  97.5714 284.2847 0009844 212.9945 147.0664 14.96093170448512

Suivez CZ-2D R/B en temps réel avec AllMySat

Download on the App Store